When you browse on this site, cookies collect data to enhance your experience and personalize the content and advertising you see.
Visit our Privacy Policy to learn more. By continuing to use the site, you agree to this use of cookies and data.
  • In Österreich
  • Länderverzeichnis
  • Für 7 Tage
  • Wassertemperatur
  • Wetterkarte
  • News
  • Widgets
  • user-avatar
    Anmelden

    Stündliche Wetter Baltschik

    Heute, 28 Mai, Donnerstag

    Zeit Temperatur Niederschläge Wind Luftdruck Luftfeuchtigkeit
    00:00 +9°C° 0.1 mm 3 m/S 741 mmHg 92%
    01:00 +8°C° 0.1 mm 4 m/S 741 mmHg 92%
    02:00 +9°C° 0 mm 3 m/S 740 mmHg 94%
    03:00 +8°C° 0.1 mm 4 m/S 740 mmHg 95%
    04:00 +7°C° 0.1 mm 4 m/S 740 mmHg 95%
    05:00 +7°C° 0.1 mm 4 m/S 739 mmHg 96%
    06:00 +8°C° 0.1 mm 5 m/S 739 mmHg 92%
    07:00 +10°C° 0.1 mm 5 m/S 739 mmHg 89%
    08:00 +12°C° 0.1 mm 5 m/S 739 mmHg 85%
    09:00 +13°C° 0.3 mm 5 m/S 739 mmHg 80%
    10:00 +15°C° 0.3 mm 5 m/S 739 mmHg 75%
    11:00 +16°C° 0.3 mm 5 m/S 739 mmHg 69%
    12:00 +16°C° 0.9 mm 5 m/S 739 mmHg 69%
    13:00 +18°C° 0.9 mm 4 m/S 739 mmHg 68%
    14:00 +18°C° 0.9 mm 4 m/S 738 mmHg 67%
    15:00 +18°C° 0.8 mm 3 m/S 738 mmHg 68%
    16:00 +18°C° 0.8 mm 3 m/S 738 mmHg 69%
    17:00 +17°C° 0.8 mm 3 m/S 738 mmHg 70%
    18:00 +16°C° 0.3 mm 2 m/S 738 mmHg 74%
    19:00 +14°C° 0.3 mm 2 m/S 738 mmHg 79%
    20:00 +13°C° 0.3 mm 1 m/S 738 mmHg 83%
    21:00 +12°C° 0 mm 1 m/S 738 mmHg 84%
    22:00 +12°C° 0 mm 2 m/S 738 mmHg 85%
    23:00 +12°C° 0 mm 2 m/S 738 mmHg 86%

    Morgen, 29 Mai, Freitag

    Zeit Temperatur Niederschläge Wind Luftdruck Luftfeuchtigkeit
    00:00 +10°C° 0 mm 2 m/S 738 mmHg 86%
    01:00 +10°C° 0 mm 2 m/S 738 mmHg 87%
    02:00 +9°C° 0 mm 2 m/S 738 mmHg 87%
    03:00 +9°C° 0 mm 2 m/S 738 mmHg 87%
    04:00 +9°C° 0 mm 2 m/S 738 mmHg 87%
    05:00 +9°C° 0 mm 2 m/S 738 mmHg 88%
    06:00 +12°C° 0 mm 2 m/S 738 mmHg 83%
    07:00 +14°C° 0 mm 2 m/S 738 mmHg 78%
    08:00 +16°C° 0 mm 2 m/S 738 mmHg 72%
    09:00 +17°C° 0.8 mm 2 m/S 738 mmHg 69%
    10:00 +18°C° 0.8 mm 2 m/S 738 mmHg 65%
    11:00 +19°C° 0.8 mm 2 m/S 738 mmHg 61%
    12:00 +19°C° 0.8 mm 2 m/S 738 mmHg 60%
    13:00 +19°C° 0.8 mm 2 m/S 738 mmHg 59%
    14:00 +20°C° 0.8 mm 2 m/S 737 mmHg 58%
    15:00 +19°C° 1.6 mm 2 m/S 737 mmHg 63%
    16:00 +19°C° 1.6 mm 3 m/S 737 mmHg 67%
    17:00 +18°C° 1.6 mm 3 m/S 737 mmHg 72%
    18:00 +17°C° 0.3 mm 3 m/S 737 mmHg 76%
    19:00 +14°C° 0.3 mm 3 m/S 737 mmHg 80%
    20:00 +13°C° 0.3 mm 3 m/S 737 mmHg 85%
    21:00 +13°C° 0 mm 2 m/S 737 mmHg 86%
    22:00 +13°C° 0 mm 2 m/S 737 mmHg 87%
    23:00 +12°C° 0 mm 2 m/S 737 mmHg 89%

    übermorgen, 30 Mai, Samstag

    Zeit Temperatur Niederschläge Wind Luftdruck Luftfeuchtigkeit
    00:00 +12°C° 0 mm 2 m/S 737 mmHg 90%
    01:00 +12°C° 0 mm 1 m/S 737 mmHg 91%
    02:00 +11°C° 0 mm 1 m/S 737 mmHg 92%
    03:00 +11°C° 0 mm 1 m/S 737 mmHg 92%
    04:00 +12°C° 0 mm 1 m/S 737 mmHg 91%
    05:00 +12°C° 0 mm 1 m/S 737 mmHg 91%
    06:00 +13°C° 0 mm 1 m/S 737 mmHg 87%
    07:00 +14°C° 0 mm 1 m/S 738 mmHg 83%
    08:00 +16°C° 0 mm 2 m/S 738 mmHg 79%
    09:00 +17°C° 0.8 mm 2 m/S 738 mmHg 76%
    10:00 +18°C° 0.8 mm 3 m/S 738 mmHg 73%
    11:00 +19°C° 0.8 mm 3 m/S 738 mmHg 71%
    12:00 +20°C° 0.7 mm 3 m/S 738 mmHg 68%
    13:00 +20°C° 0.7 mm 3 m/S 738 mmHg 65%
    14:00 +21°C° 0.7 mm 3 m/S 737 mmHg 62%
    15:00 +20°C° 1.2 mm 4 m/S 737 mmHg 66%
    16:00 +20°C° 1.2 mm 4 m/S 737 mmHg 69%
    17:00 +19°C° 1.2 mm 4 m/S 737 mmHg 73%
    18:00 +18°C° 0.4 mm 4 m/S 737 mmHg 77%
    19:00 +17°C° 0.4 mm 3 m/S 736 mmHg 82%
    20:00 +15°C° 0.4 mm 2 m/S 736 mmHg 87%
    21:00 +15°C° 0 mm 2 m/S 736 mmHg 87%
    22:00 +14°C° 0 mm 2 m/S 736 mmHg 87%
    23:00 +14°C° 0 mm 2 m/S 737 mmHg 87%

    31 Mai, Sonntag

    Zeit Temperatur Niederschläge Wind Luftdruck Luftfeuchtigkeit
    00:00 +14°C° 0 mm 2 m/S 736 mmHg 87%
    01:00 +14°C° 0 mm 2 m/S 736 mmHg 86%
    02:00 +14°C° 0 mm 2 m/S 736 mmHg 85%
    03:00 +14°C° 0 mm 2 m/S 736 mmHg 85%
    04:00 +13°C° 0 mm 2 m/S 736 mmHg 86%
    05:00 +13°C° 0 mm 2 m/S 736 mmHg 86%
    06:00 +14°C° 0 mm 3 m/S 736 mmHg 82%
    07:00 +17°C° 0 mm 3 m/S 736 mmHg 78%
    08:00 +18°C° 0 mm 3 m/S 736 mmHg 73%
    09:00 +19°C° 0.7 mm 3 m/S 736 mmHg 69%
    10:00 +20°C° 0.7 mm 4 m/S 736 mmHg 65%
    11:00 +21°C° 0.7 mm 4 m/S 736 mmHg 61%
    12:00 +21°C° 1.2 mm 4 m/S 736 mmHg 62%
    13:00 +22°C° 1.2 mm 3 m/S 735 mmHg 62%
    14:00 +22°C° 1.2 mm 3 m/S 735 mmHg 62%
    15:00 +21°C° 1.1 mm 3 m/S 735 mmHg 67%
    16:00 +20°C° 1.1 mm 3 m/S 735 mmHg 72%
    17:00 +19°C° 1.1 mm 3 m/S 734 mmHg 77%
    18:00 +18°C° 0.2 mm 3 m/S 734 mmHg 80%
    19:00 +17°C° 0.2 mm 3 m/S 734 mmHg 82%
    20:00 +14°C° 0.2 mm 3 m/S 734 mmHg 85%
    21:00 +14°C° 0 mm 3 m/S 734 mmHg 86%
    22:00 +13°C° 0 mm 3 m/S 735 mmHg 86%
    23:00 +13°C° 0 mm 3 m/S 735 mmHg 87%

    1 Juni, Montag

    Zeit Temperatur Niederschläge Wind Luftdruck Luftfeuchtigkeit
    00:00 +13°C° 0 mm 3 m/S 734 mmHg 87%
    01:00 +12°C° 0 mm 3 m/S 734 mmHg 87%
    02:00 +12°C° 0 mm 3 m/S 734 mmHg 86%
    03:00 +12°C° 0 mm 3 m/S 734 mmHg 87%
    04:00 +11°C° 0 mm 3 m/S 734 mmHg 87%
    05:00 +11°C° 0 mm 3 m/S 734 mmHg 87%
    06:00 +12°C° 0 mm 3 m/S 734 mmHg 84%
    07:00 +13°C° 0 mm 4 m/S 735 mmHg 81%
    08:00 +15°C° 0 mm 4 m/S 735 mmHg 78%
    09:00 +17°C° 0 mm 4 m/S 735 mmHg 73%
    10:00 +18°C° 0 mm 4 m/S 735 mmHg 68%
    11:00 +20°C° 0 mm 4 m/S 735 mmHg 64%
    12:00 +20°C° 0.1 mm 4 m/S 735 mmHg 61%
    13:00 +21°C° 0.1 mm 4 m/S 735 mmHg 59%
    14:00 +21°C° 0.1 mm 4 m/S 735 mmHg 57%
    15:00 +20°C° 0.4 mm 4 m/S 735 mmHg 62%
    16:00 +20°C° 0.4 mm 3 m/S 734 mmHg 67%
    17:00 +19°C° 0.4 mm 3 m/S 734 mmHg 71%
    18:00 +18°C° 0.4 mm 3 m/S 734 mmHg 77%
    19:00 +16°C° 0.4 mm 2 m/S 734 mmHg 82%
    20:00 +15°C° 0.4 mm 2 m/S 734 mmHg 87%
    21:00 +14°C° 0.1 mm 2 m/S 734 mmHg 87%
    22:00 +14°C° 0.1 mm 1 m/S 735 mmHg 86%
    23:00 +14°C° 0.1 mm 1 m/S 735 mmHg 86%

    2 Juni, Dienstag

    Zeit Temperatur Niederschläge Wind Luftdruck Luftfeuchtigkeit
    00:00 +14°C° 0.1 mm 1 m/S 735 mmHg 86%
    01:00 +14°C° 0.1 mm 1 m/S 735 mmHg 85%
    02:00 +14°C° 0.1 mm 1 m/S 735 mmHg 85%
    03:00 +14°C° 0 mm 1 m/S 735 mmHg 85%
    04:00 +14°C° 0 mm 1 m/S 735 mmHg 85%
    05:00 +14°C° 0 mm 1 m/S 735 mmHg 86%
    06:00 +15°C° 0.1 mm 1 m/S 735 mmHg 85%
    07:00 +15°C° 0.1 mm 1 m/S 735 mmHg 85%
    08:00 +16°C° 0.1 mm 2 m/S 736 mmHg 84%
    09:00 +16°C° 0.1 mm 2 m/S 736 mmHg 82%
    10:00 +17°C° 0.1 mm 2 m/S 736 mmHg 79%
    11:00 +19°C° 0.1 mm 1 m/S 736 mmHg 76%
    12:00 +19°C° 0.4 mm 2 m/S 736 mmHg 72%
    13:00 +20°C° 0.4 mm 2 m/S 736 mmHg 68%
    14:00 +21°C° 0.4 mm 2 m/S 736 mmHg 65%
    15:00 +20°C° 0.9 mm 3 m/S 735 mmHg 67%
    16:00 +20°C° 0.9 mm 3 m/S 735 mmHg 70%
    17:00 +19°C° 0.9 mm 3 m/S 735 mmHg 72%
    18:00 +18°C° 0.1 mm 3 m/S 735 mmHg 77%
    19:00 +16°C° 0.1 mm 2 m/S 735 mmHg 81%
    20:00 +15°C° 0.1 mm 2 m/S 735 mmHg 85%
    21:00 +14°C° 0 mm 2 m/S 735 mmHg 86%
    22:00 +14°C° 0 mm 2 m/S 735 mmHg 88%
    23:00 +13°C° 0 mm 2 m/S 735 mmHg 89%
    Mehr zeigen